Home   Weather   Río Gallegos   Past weeks

Flag for Argentina Past Weather in Río Gallegos, Santa Cruz, Argentina — Yesterday and Last 2 Weeks

Now
34 °F

Clear.


Feels Like: 26 °F
Forecast: 35 / 44 °F
Wind: 10 mph from Northwest

Location: Rio Gallegos Aerodrome

Current Time: Jul 22, 2017 at 11:50:56 pm

Latest Report: Jul 22, 2017 at 11:00 pm


Visibility: 10 mi

Pressure: 29.15 "Hg

Humidity: 81%

Dew Point: 28 °F

Location of Río GallegosLocation

Past Weather in Río Gallegos — Graph

°F

Río Gallegos Temperature Yesterday

Maximum temperature yesterday: 43 °F (at 4:00 pm)
Minimum temperature yesterday: 32 °F (at 12:00 am)
Average temperature yesterday: 38 °F

High & Low Weather Summary for the Past Weeks

 TemperatureHumidityPressure
High54 °F (Jul 17, 5:00 pm)100% (Jul 19, 1:00 am)30.12 "Hg (Jul 19, 1:00 am)
Low23 °F (Jul 13, 10:00 am)30% (Jul 17, 5:00 pm)29.09 "Hg (Jul 13, 7:00 am)
Average37 °F72%29.57 "Hg
* Reported Jul 7 10:00 pm — Jul 22 10:00 pm, Río Gallegos. Weather by CustomWeather, © 2017

Note: Actual official high and low records may vary slightly from our data, if they occured in-between our weather recording intervals... More about our weather records

Advertising

Río Gallegos Weather History for the Previous 24 Hours

Scroll right to see more
 ConditionsComfort  
Time TempWeatherWind HumidityBarometerVisibility
10:00 pm
Sat, Jul 22
36 °FClear.9 mph81%29.15 "Hg10 mi
9:00 pm36 °FClear.6 mph81%29.15 "Hg10 mi
8:00 pm37 °FClear.12 mph81%29.12 "Hg10 mi
7:00 pm37 °FClear.5 mph87%29.12 "Hg10 mi
6:00 pm43 °FClear.13 mph71%29.09 "Hg10 mi
5:00 pm45 °FSunny.16 mph61%29.09 "Hg10 mi
4:00 pm45 °FSunny.15 mph61%29.09 "Hg10 mi
3:00 pm46 °FSunny.16 mph57%29.09 "Hg10 mi
2:00 pm46 °FSunny.13 mph53%29.12 "Hg10 mi
1:00 pm41 °FSunny.10 mph61%29.12 "Hg10 mi
12:00 pm41 °FSunny.7 mph61%29.12 "Hg10 mi
11:00 am39 °FBroken clouds.8 mph65%29.15 "HgN/A
10:00 am39 °FBroken clouds.7 mph65%29.15 "HgN/A
9:00 am36 °FPassing clouds.10 mph81%29.12 "HgN/A
8:00 am36 °FPartly cloudy.7 mph81%29.12 "HgN/A
7:00 am37 °FPassing clouds.9 mph75%29.12 "HgN/A
6:00 am39 °FPassing clouds.7 mph70%29.12 "HgN/A
5:00 am39 °FPassing clouds.8 mph70%29.12 "HgN/A
4:00 am41 °FPassing clouds.13 mph66%29.15 "HgN/A
3:00 am43 °FPassing clouds.12 mph66%29.15 "HgN/A
1:00 am41 °FPartly cloudy.6 mph76%29.15 "HgN/A
12:00 am43 °FPartly cloudy.15 mph66%29.15 "HgN/A
11:00 pm
Fri, Jul 21
43 °FPartly cloudy.17 mph71%29.15 "HgN/A
Weather by CustomWeather, © 2017

See weather overviewHow to use our weather pages